EW6030 Weather Reports


Display with metric or nautical units.
time (UTC)temp
F
wind
direction
speed
MPH
gust
MPH
rain 1hr
in
rain 24hr
in
rain mn
in
humidity
%
barometer
mb
20190917113155 61 293 0.0 0.0 0.00 0.00 0.00 86 1017.9
20190917111710 61 293 0.0 0.0 0.00 0.00 0.00 86 1017.7
20190917110158 61 293 0.0 0.0 0.00 0.00 0.00 86 1017.6
20190917104719 61 293 0.0 0.0 0.00 0.00 0.00 86 1017.5
20190917103202 61 294 0.0 0.0 0.00 0.00 0.00 86 1017.5
20190917101633 61 294 0.0 0.0 0.00 0.00 0.00 86 1017.6
20190917100257 61 294 0.0 0.0 0.00 0.00 0.00 86 1017.5
20190917094710 61 294 0.0 0.0 0.00 0.00 0.00 86 1017.2
20190917093154 61 294 0.0 0.0 0.00 0.00 0.00 86 1017.3
20190917091638 61 294 0.0 0.0 0.00 0.00 0.00 86 1017.3
20190917090118 61 294 0.0 0.0 0.00 0.00 0.00 86 1017.3
20190917084652 61 294 0.0 0.0 0.00 0.00 0.00 86 1017.1
20190917083122 61 294 0.0 0.0 0.00 0.00 0.00 86 1017.2
20190917081710 61 294 0.0 0.0 0.00 0.00 0.00 86 1017.2
20190917080200 61 294 0.0 0.0 0.00 0.00 0.00 86 1017.2
20190917074617 61 294 0.0 0.0 0.00 0.00 0.00 85 1017.3
20190917073141 61 294 0.0 0.0 0.00 0.00 0.00 85 1017.2
20190917071629 62 294 0.0 0.0 0.00 0.00 0.00 85 1017.2
20190917070123 62 294 0.0 0.0 0.00 0.00 0.00 85 1017.4
20190917064618 62 294 0.0 0.0 0.00 0.00 0.00 84 1017.4
20190917063052 62 294 0.0 0.0 0.00 0.00 0.00 83 1017.4
20190917061621 63 294 0.0 0.0 0.00 0.00 0.00 83 1017.1
20190917060126 63 294 0.0 0.0 0.00 0.00 0.00 83 1017.1
20190917054541 64 294 0.0 0.0 0.00 0.00 0.00 82 1017.0
20190917053042 64 294 0.0 0.0 0.00 0.00 0.00 82 1016.9
20190917051535 65 294 0.0 0.0 0.00 0.00 0.00 81 1016.9
20190917050108 65 294 0.0 0.0 0.00 0.00 0.00 81 1017.0
20190917044546 66 294 0.0 0.0 0.00 0.00 0.00 80 1017.0
20190917043123 67 294 0.0 0.0 0.00 0.00 0.00 79 1016.9
20190917041552 67 294 0.0 0.0 0.00 0.00 0.00 79 1016.9
20190917040031 67 249 0.0 0.0 0.00 0.00 0.00 79 1016.8
20190917034629 68 275 0.0 0.0 0.00 0.00 0.00 79 1016.9
20190917033050 68 220 0.0 0.0 0.00 0.00 0.00 79 1017.1
20190917031541 68 243 0.0 0.0 0.00 0.00 0.00 79 1016.9
20190917030041 69 233 0.0 0.0 0.00 0.00 0.00 78 1016.8
20190917024535 69 233 0.0 0.0 0.00 0.00 0.00 78 1016.6
20190917023036 69 236 0.0 0.0 0.00 0.00 0.00 78 1016.4
20190917021523 69 253 0.0 0.0 0.00 0.00 0.00 78 1016.3
20190917020037 69 253 0.0 0.0 0.00 0.00 0.00 79 1016.3
20190917014524 69 257 0.0 0.0 0.00 0.00 0.00 80 1016.3
20190917013030 69 257 0.0 0.0 0.00 0.00 0.00 80 1016.3
20190917011558 69 260 0.0 0.0 0.00 0.00 0.00 81 1016.2
20190917010029 69 260 0.0 0.0 0.00 0.00 0.00 81 1016.1
20190917004533 70 260 0.0 0.0 0.00 0.00 0.00 81 1016.1
20190917003117 70 260 0.0 0.0 0.00 0.00 0.00 81 1016.0
20190917001523 71 260 0.0 0.0 0.00 0.00 0.00 81 1016.0
20190917000028 71 260 0.0 0.0 0.00 0.00 0.00 80 1016.0
20190916234542 72 260 0.0 0.0 0.00 0.00 0.00 78 1016.0
20190916233034 73 260 0.0 0.0 0.00 0.00 0.00 76 1016.1
20190916231556 75 260 0.0 0.0 0.00 0.00 0.00 73 1016.1
20190916230028 76 259 0.0 0.0 0.00 0.00 0.00 72 1015.9
20190916224529 78 240 0.0 0.0 0.00 0.00 0.00 66 1015.8
20190916223019 78 242 0.0 0.0 0.00 0.00 0.00 65 1015.8
20190916221548 76 274 0.0 0.0 0.00 0.00 0.00 68 1015.8
20190916220022 76 284 0.0 0.0 0.00 0.00 0.00 72 1015.9
20190916214518 77 284 0.0 0.0 0.00 0.00 0.00 71 1016.1
20190916213042 79 284 0.0 0.0 0.00 0.00 0.00 67 1016.1
20190916211550 79 253 0.0 0.0 0.00 0.00 0.00 62 1016.0
20190916210025 79 251 0.0 0.0 0.00 0.00 0.00 61 1016.0
20190916204512 80 296 0.0 0.0 0.00 0.00 0.00 60 1016.1
20190916203018 80 250 0.0 0.0 0.00 0.00 0.00 64 1016.1
20190916201514 80 258 0.0 0.0 0.00 0.00 0.00 63 1016.3
20190916200009 80 251 0.0 0.0 0.00 0.00 0.00 62 1016.2
20190916194515 80 156 0.0 0.0 0.00 0.00 0.00 61 1016.4
20190916193013 81 280 0.0 0.0 0.00 0.00 0.00 63 1016.3
20190916191508 82 254 0.0 0.0 0.00 0.00 0.00 60 1016.4
20190916190011 81 278 0.0 0.0 0.00 0.00 0.00 58 1016.7
20190916184519 82 288 0.0 0.0 0.00 0.00 0.00 57 1016.7
20190916183021 80 258 0.0 0.0 0.00 0.00 0.00 60 1017.0
20190916181723 79 252 0.0 0.0 0.00 0.00 0.00 62 1017.2
20190916180244 78 258 0.0 0.0 0.00 0.00 0.00 67 1017.4
20190916174803 77 282 0.0 0.0 0.00 0.00 0.00 69 1017.5
20190916173118 76 265 0.0 0.0 0.00 0.00 0.00 72 1017.5
20190916171811 75 292 0.0 0.0 0.00 0.00 0.00 77 1017.7
20190916170246 74 340 0.0 0.0 0.00 0.00 0.00 77 1017.8
20190916164648 73 271 0.0 0.0 0.00 0.00 0.00 80 1017.7
20190916163132 72 316 0.0 0.0 0.00 0.00 0.00 81 1017.7
20190916161549 71 305 0.0 0.0 0.00 0.00 0.00 83 1017.7
20190916160127 69 252 0.0 0.0 0.00 0.00 0.00 87 1017.7
20190916154557 68 189 0.0 0.0 0.00 0.00 0.00 90 1018.0
20190916153050 68 151 0.0 0.0 0.00 0.00 0.00 91 1018.1
20190916151556 67 151 0.0 0.0 0.00 0.00 0.00 91 1018.2
20190916150038 66 150 0.0 0.0 0.00 0.00 0.00 91 1018.2
20190916144552 65 151 0.0 0.0 0.00 0.00 0.00 91 1018.2
20190916143042 65 151 0.0 0.0 0.00 0.00 0.00 90 1018.2
20190916141522 64 150 0.0 0.0 0.00 0.00 0.00 90 1018.1
20190916140027 64 151 0.0 0.0 0.00 0.00 0.00 90 1018.1
20190916134525 63 150 0.0 0.0 0.00 0.00 0.00 89 1018.0
20190916133017 63 151 0.0 0.0 0.00 0.00 0.00 89 1017.5
20190916131527 63 151 0.0 0.0 0.00 0.00 0.00 89 1017.5
20190916130013 63 150 0.0 0.0 0.00 0.00 0.00 89 1017.4
20190916124526 62 151 0.0 0.0 0.00 0.00 0.00 89 1017.4
20190916123007 62 151 0.0 0.0 0.00 0.00 0.00 89 1017.1
20190916121504 62 150 0.0 0.0 0.00 0.00 0.00 89 1016.7
20190916120033 62 150 0.0 0.0 0.00 0.00 0.00 89 1016.7
20190916114509 62 150 0.0 0.0 0.00 0.00 0.00 88 1016.5